Temp
82 84 78 74 61 59 56 62 68 67 69 72 77 73 68 68 67 57 74 78 79 78 80 80 81 81 81 81 81 80 80 80 80 80 80 80 80 80 79 79 79 79 80 80 80 80 80 81 80
80 85 76 68 56 56 56 65 65 69 74 76 78 74 70 66 74 73 73 79 80 79 79 79 81 81 81 80 80 80 80 80 80 80 80 80 80 80 80 79 79 79 79 79 79 79 80 80 80
82 85 68 61 61 53 59 65 68 73 76 75 74 75 72 69 76 74 78 82 82 79 79 80 81 80 80 80 80 80 80 80 80 80 80 80 80 79 79 79 79 79 79 79 79 78 79 79 79
78 74 70 60 61 63 65 66 72 73 75 79 75 68 76 77 77 79 82 80 78 77 77 79 80 80 80 80 79 79 79 79 79 79 79 79 79 79 79 79 79 78 78 78 78 78 78 78 78
75 67 59 57 64 68 69 74 73 72 74 75 76 67 69 76 81 81 82 79 75 75 77 79 80 80 80 80 79 79 79 79 79 79 79 79 79 79 79 79 78 78 78 78 77 78 78 78 78
67 67 57 52 57 68 73 75 75 72 73 75 72 69 68 76 79 80 82 79 79 76 78 79 80 80 80 80 79 79 79 79 78 78 78 78 78 78 78 78 77 77 77 76 77 77 77 77 77
65 61 57 59 59 66 74 76 72 72 71 72 76 66 68 73 79 81 81 81 79 78 78 77 78 79 79 79 79 78 79 78 78 79 78 77 77 77 76 76 76 76 77 77 78 78 78 78 78
69 64 60 58 58 64 74 77 78 74 69 78 77 65 63 73 80 81 80 81 79 78 76 74 74 74 73 74 78 77 76 77 77 78 77 77 76 76 76 76 77 77 78 79 79 79 79 79 79
74 60 57 61 64 69 75 73 76 76 75 74 73 72 76 78 80 78 75 76 79 78 76 75 75 72 72 72 75 75 77 78 77 76 77 72 66 67 68 76 78 79 79 79 79 78 78 77 75
66 57 63 72 70 72 74 74 74 72 70 69 71 75 79 80 77 75 74 77 75 75 75 76 73 72 72 76 69 67 70 67 67 68 67 66 65 65 69 72 75 76 76 77 76 76 75 70 64
67 62 71 75 77 76 75 73 75 70 64 70 69 72 76 74 74 74 75 80 75 75 76 75 73 74 74 72 67 64 65 65 64 65 64 64 64 62 61 60 60 60 68 62 64 62 62 62 62
63 69 71 73 74 76 74 76 71 71 70 74 74 74 73 72 73 74 74 76 76 76 74 76 74 74 70 68 66 65 64 63 62 62 64 61 59 60 59 58 58 58 58 59 58 58 60 61 62
65 65 69 75 73 72 76 72 72 71 73 75 76 75 72 71 72 74 75 78 76 72 72 72 73 71 68 67 64 63 62 61 61 61 62 60 59 58 58 57 57 57 58 57 57 57 58 59 60
68 67 68 71 70 70 71 69 73 72 74 74 73 70 70 71 72 73 75 73 72 71 72 73 74 69 68 65 64 61 60 60 60 59 60 62 58 58 57 57 57 56 57 57 57 57 57 57 58
69 64 65 65 67 65 69 65 66 73 73 72 70 67 70 71 72 72 73 71 71 70 71 70 70 68 65 63 62 61 62 62 60 60 62 61 59 58 57 56 56 55 57 57 57 57 57 56 58
62 60 53 62 65 65 65 57 65 72 73 70 70 66 68 70 71 71 73 72 72 69 69 71 74 67 64 64 62 62 62 61 59 59 59 62 62 59 57 56 56 56 57 55 55 54 54 53 53
55 48 52 57 65 63 61 57 63 66 69 68 66 66 69 69 70 71 73 72 71 69 68 67 66 66 65 64 63 62 61 59 58 58 59 61 62 61 57 57 56 57 55 54 54 53 51 51 51
48 50 53 53 60 61 56 56 60 64 67 68 70 65 65 68 69 70 70 71 70 69 68 68 65 64 64 61 59 59 59 58 58 58 59 61 61 62 58 57 56 56 54 53 53 51 52 50 50
59 55 54 55 62 58 54 57 61 66 65 66 67 63 61 64 68 70 70 70 68 67 66 66 64 62 61 58 58 57 58 58 58 59 61 61 60 61 58 56 56 55 54 53 52 50 49 49 48
60 55 51 55 62 58 55 57 63 65 65 66 66 66 64 59 63 66 69 67 67 63 65 64 65 63 62 60 59 59 57 57 58 58 60 61 61 61 59 56 55 54 52 52 51 49 47 46 47
59 54 50 53 55 60 57 53 57 62 64 66 65 66 65 65 62 61 63 65 64 62 62 64 64 63 62 63 59 58 57 57 56 56 57 59 61 60 59 57 55 54 51 50 49 48 47 44 45
54 63 62 57 51 44 55 40 50 56 58 58 58 58 60 62 62 64 63 62 63 63 63 64 64 63 64 63 59 58 56 55 55 55 56 57 59 59 59 57 55 53 51 50 49 53 48 44 43
55 61 59 57 51 47 48 42 46 53 51 52 54 58 59 60 61 64 63 64 64 63 63 64 63 62 63 60 59 57 55 54 55 55 55 54 56 57 57 56 54 52 50 49 48 48 46 45 43
62 57 54 51 47 38 47 45 43 47 50 50 52 55 58 60 60 61 62 63 62 61 62 62 62 61 60 59 58 57 56 55 53 53 52 52 52 52 54 55 52 51 49 49 48 47 46 45 43
56 47 37 36 35 36 49 44 45 50 52 53 53 53 56 56 56 58 58 58 58 58 59 61 60 60 60 59 57 56 55 53 53 52 50 50 49 50 51 51 50 49 49 49 48 46 45 44 43
50 48 38 34 33 39 51 40 44 53 54 55 55 54 55 55 55 57 58 57 57 59 58 59 59 58 58 57 57 55 55 52 52 52 50 49 49 49 51 51 50 50 50 49 47 45 44 44 43
51 46 53 45 45 38 42 43 50 52 53 53 52 54 53 54 54 55 55 55 55 55 56 57 56 56 56 55 53 52 52 52 51 51 50 49 49 53 52 51 49 49 49 48 47 44 43 44 43
52 56 45 42 35 32 41 38 40 46 49 51 50 50 52 54 54 54 54 55 55 55 55 56 56 55 55 54 52 52 51 51 50 49 49 49 49 49 49 48 48 47 47 47 45 43 43 43 43
50 47 48 47 43 36 33 37 48 49 52 50 50 52 53 53 53 53 54 55 55 55 55 54 55 55 53 53 51 51 50 50 49 48 48 48 48 48 48 48 47 47 46 46 44 43 43 42 43
51 49 49 39 40 41 35 36 52 53 54 54 52 54 53 53 53 54 53 52 52 52 53 53 53 53 53 52 51 50 49 48 47 46 47 47 47 47 47 47 46 46 46 45 44 43 44 42 44
MSLP
1010.27 1009.95 1010.43 1010.84 1011.86 1011.76 1011.11 1010.54 1009.79 1009.78 1009.77 1009.70 1009.75 1010.25 1011.62 1012.09 1012.74 1013.84 1013.90 1014.23 1014.91 1015.41 1015.68 1016.01 1016.19 1016.40 1016.58 1016.75 1016.83 1016.90 1017.05 1017.06 1017.07 1017.11 1017.12 1017.10 1017.10 1017.08 1017.03 1017.07 1017.04 1016.99 1016.89 1016.79 1016.79 1016.76 1016.69 1016.65 1016.55
1010.12 1009.93 1010.46 1010.93 1011.95 1011.70 1011.08 1010.15 1010.15 1009.72 1009.62 1009.53 1010.15 1010.66 1011.39 1012.70 1012.77 1013.45 1013.90 1014.13 1014.51 1015.11 1015.67 1016.01 1016.27 1016.47 1016.68 1016.87 1016.95 1017.03 1017.16 1017.23 1017.28 1017.32 1017.32 1017.31 1017.33 1017.34 1017.30 1017.30 1017.29 1017.27 1017.26 1017.23 1017.13 1017.04 1016.98 1016.95 1016.84
1010.17 1010.06 1010.99 1011.41 1011.78 1011.62 1010.92 1010.25 1009.81 1009.70 1009.49 1009.67 1010.14 1010.53 1011.34 1012.62 1012.95 1013.32 1013.38 1013.87 1014.54 1015.14 1015.64 1015.94 1016.29 1016.57 1016.77 1016.96 1017.08 1017.13 1017.24 1017.36 1017.42 1017.49 1017.48 1017.48 1017.53 1017.56 1017.51 1017.50 1017.51 1017.52 1017.51 1017.51 1017.46 1017.35 1017.25 1017.16 1017.11
1010.20 1010.44 1010.95 1011.46 1011.67 1010.92 1010.32 1010.03 1009.42 1009.62 1009.56 1009.73 1010.29 1011.45 1011.78 1012.00 1012.54 1012.82 1013.29 1013.91 1014.76 1015.39 1015.75 1016.02 1016.30 1016.61 1016.83 1017.03 1017.17 1017.22 1017.35 1017.49 1017.56 1017.59 1017.60 1017.67 1017.73 1017.74 1017.70 1017.68 1017.68 1017.74 1017.72 1017.70 1017.66 1017.61 1017.54 1017.46 1017.35
1010.20 1010.93 1011.42 1011.42 1011.36 1010.42 1009.91 1009.36 1009.32 1009.65 1009.64 1009.94 1010.38 1011.91 1012.51 1012.50 1012.35 1012.79 1013.27 1014.06 1014.71 1015.57 1015.77 1016.08 1016.38 1016.63 1016.90 1017.08 1017.24 1017.38 1017.52 1017.61 1017.67 1017.71 1017.75 1017.77 1017.80 1017.81 1017.78 1017.73 1017.79 1017.82 1017.90 1017.91 1017.88 1017.80 1017.71 1017.66 1017.53
1010.78 1011.16 1011.64 1011.97 1011.70 1010.49 1009.55 1008.91 1009.10 1009.41 1009.52 1010.07 1010.84 1011.74 1012.71 1012.64 1012.59 1012.86 1013.15 1013.97 1014.30 1015.14 1015.71 1016.03 1016.47 1016.70 1016.89 1017.12 1017.31 1017.47 1017.57 1017.69 1017.82 1017.88 1017.88 1018.00 1017.96 1017.98 1018.03 1018.03 1018.14 1018.15 1018.17 1018.18 1018.10 1018.01 1017.90 1017.81 1017.68
1010.98 1011.51 1011.46 1011.60 1011.25 1010.36 1009.26 1008.37 1008.88 1009.26 1009.34 1009.69 1010.39 1011.82 1012.70 1012.88 1012.53 1012.66 1013.04 1013.76 1014.32 1014.66 1015.30 1015.84 1016.37 1016.73 1016.97 1017.25 1017.47 1017.64 1017.70 1017.78 1017.91 1017.96 1018.10 1018.30 1018.41 1018.42 1018.49 1018.51 1018.55 1018.51 1018.40 1018.28 1018.17 1018.13 1018.07 1017.92 1017.80
1010.56 1011.17 1011.07 1010.96 1010.70 1009.32 1008.24 1008.25 1008.40 1008.79 1009.31 1009.23 1009.96 1011.38 1012.50 1012.47 1012.40 1012.54 1013.04 1013.74 1014.18 1014.73 1015.37 1016.09 1016.29 1016.75 1017.16 1017.48 1017.72 1017.89 1017.88 1018.02 1018.10 1018.22 1018.40 1018.57 1018.71 1018.74 1018.76 1018.79 1018.73 1018.66 1018.55 1018.40 1018.31 1018.21 1018.11 1018.02 1017.82
1010.01 1010.87 1010.71 1009.95 1009.79 1008.57 1007.96 1007.92 1008.26 1008.60 1009.11 1009.51 1010.06 1010.47 1010.59 1011.80 1012.25 1012.74 1013.34 1013.78 1014.35 1015.16 1015.46 1015.89 1016.19 1016.73 1016.96 1017.58 1017.92 1018.07 1018.07 1018.10 1018.25 1018.42 1018.53 1018.87 1018.97 1019.03 1019.06 1018.97 1018.84 1018.68 1018.64 1018.58 1018.50 1018.42 1018.34 1018.28 1018.21
1010.20 1010.63 1009.80 1009.07 1008.71 1008.28 1008.21 1007.88 1008.20 1008.84 1009.42 1010.21 1010.54 1010.61 1011.11 1011.74 1012.29 1012.76 1013.27 1013.69 1014.49 1015.09 1015.37 1015.67 1015.95 1016.69 1016.81 1017.26 1017.94 1018.24 1018.37 1018.46 1018.57 1018.57 1018.79 1018.92 1019.12 1019.23 1019.33 1019.26 1019.14 1019.03 1019.04 1018.95 1018.87 1018.84 1018.77 1018.77 1018.73
1009.87 1010.02 1009.32 1008.71 1008.24 1008.34 1007.91 1008.38 1008.18 1008.93 1009.72 1009.99 1010.68 1011.15 1011.47 1011.92 1012.35 1012.72 1012.98 1013.23 1013.86 1014.54 1015.20 1015.65 1016.02 1016.55 1016.67 1017.18 1017.84 1018.40 1018.64 1018.55 1018.71 1018.79 1018.98 1019.19 1019.44 1019.61 1019.76 1019.73 1019.73 1019.68 1019.59 1019.65 1019.52 1019.43 1019.39 1019.26 1019.20
1009.75 1009.70 1009.73 1009.00 1008.20 1008.16 1008.15 1008.21 1008.62 1008.99 1009.39 1009.34 1010.00 1010.65 1011.39 1011.99 1012.34 1012.61 1012.95 1013.12 1014.04 1014.60 1015.17 1015.87 1015.89 1016.36 1016.67 1017.28 1017.91 1018.37 1018.59 1018.77 1019.11 1019.12 1019.09 1019.38 1019.78 1019.95 1020.09 1020.16 1020.18 1020.16 1020.15 1020.10 1020.08 1020.06 1019.82 1019.68 1019.52
1009.55 1009.78 1009.88 1009.40 1008.99 1009.00 1008.61 1008.52 1008.79 1009.21 1009.46 1009.58 1010.01 1010.90 1011.53 1012.06 1012.26 1012.39 1012.59 1013.25 1013.84 1014.83 1015.07 1015.66 1016.02 1016.39 1016.90 1017.57 1018.11 1018.44 1018.82 1019.01 1019.23 1019.39 1019.40 1019.52 1019.94 1020.24 1020.26 1020.47 1020.52 1020.53 1020.36 1020.42 1020.46 1020.42 1020.34 1020.18 1019.96
1009.37 1009.49 1009.93 1009.87 1009.67 1009.80 1009.58 1009.26 1008.94 1009.42 1009.61 1010.03 1010.61 1011.21 1011.63 1012.05 1012.20 1012.41 1012.96 1013.61 1014.04 1014.69 1015.14 1015.63 1016.23 1016.59 1017.01 1017.72 1018.16 1018.75 1018.98 1019.21 1019.45 1019.73 1019.76 1019.80 1020.02 1020.30 1020.55 1020.70 1020.79 1020.73 1020.64 1020.64 1020.60 1020.66 1020.64 1020.60 1020.41
1009.30 1009.93 1010.03 1010.16 1010.24 1010.81 1010.47 1010.69 1010.13 1009.90 1009.99 1010.36 1011.10 1011.64 1011.78 1012.00 1012.17 1012.41 1012.94 1013.63 1014.05 1014.77 1015.17 1015.78 1016.35 1016.84 1017.35 1018.05 1018.46 1018.84 1019.05 1019.33 1019.71 1019.82 1019.82 1019.90 1020.11 1020.38 1020.69 1020.84 1020.96 1020.95 1020.77 1020.76 1020.74 1020.75 1020.72 1020.80 1020.60
1009.60 1010.19 1010.59 1010.73 1010.73 1011.37 1011.35 1011.67 1011.08 1010.67 1010.41 1010.83 1011.29 1011.72 1012.10 1012.16 1012.25 1012.61 1013.04 1013.73 1014.27 1014.77 1015.33 1015.75 1016.39 1017.02 1017.73 1018.12 1018.52 1018.89 1019.23 1019.54 1019.83 1019.91 1020.03 1020.08 1020.25 1020.45 1020.74 1020.93 1021.04 1020.96 1020.93 1021.02 1021.01 1021.05 1021.10 1021.11 1021.07
1010.11 1010.59 1010.91 1011.17 1011.02 1011.53 1012.06 1012.13 1011.68 1011.19 1011.23 1011.22 1011.43 1011.44 1011.95 1012.20 1012.53 1012.58 1012.91 1013.68 1014.28 1014.82 1015.40 1016.01 1016.76 1017.32 1017.85 1018.18 1018.63 1019.01 1019.21 1019.55 1019.79 1019.89 1020.06 1020.18 1020.33 1020.50 1020.73 1020.91 1020.97 1020.87 1021.00 1021.15 1021.26 1021.32 1021.37 1021.31 1021.17
1010.29 1010.74 1011.00 1011.22 1011.43 1011.66 1012.26 1012.08 1011.96 1011.29 1011.20 1011.25 1011.16 1011.75 1012.07 1012.11 1012.28 1012.43 1012.83 1013.51 1014.26 1014.97 1015.46 1016.09 1016.95 1017.52 1017.94 1018.40 1018.98 1019.29 1019.53 1019.62 1019.74 1019.94 1019.98 1020.07 1020.23 1020.35 1020.63 1020.81 1020.87 1020.93 1021.13 1021.37 1021.39 1021.50 1021.41 1021.42 1021.32
1009.78 1010.28 1010.67 1010.94 1011.27 1011.75 1012.43 1012.25 1011.82 1011.11 1010.96 1010.91 1010.77 1011.86 1012.44 1012.63 1012.37 1012.48 1012.99 1013.56 1014.41 1015.14 1015.74 1016.24 1017.17 1017.78 1018.08 1018.75 1019.28 1019.56 1019.77 1019.63 1019.71 1019.70 1019.70 1019.85 1020.07 1020.22 1020.52 1020.82 1020.88 1020.93 1021.16 1021.36 1021.44 1021.51 1021.59 1021.51 1021.24
1009.52 1010.08 1010.83 1011.30 1011.20 1011.81 1012.20 1011.98 1011.21 1010.95 1010.93 1010.91 1011.15 1011.70 1012.06 1012.66 1012.85 1013.05 1013.39 1013.75 1014.37 1015.17 1015.74 1016.33 1017.02 1017.61 1017.90 1018.35 1018.75 1018.94 1019.21 1019.40 1019.34 1019.36 1019.36 1019.38 1019.67 1019.88 1020.25 1020.46 1020.72 1020.81 1021.12 1021.23 1021.33 1021.44 1021.75 1021.71 1021.34
1009.24 1009.80 1010.66 1010.87 1011.50 1011.78 1012.07 1012.40 1011.42 1011.09 1011.16 1011.35 1011.56 1011.84 1012.21 1012.63 1012.92 1013.28 1013.62 1013.95 1014.48 1015.27 1015.75 1016.28 1016.75 1017.30 1017.60 1017.93 1018.52 1018.97 1019.28 1019.47 1019.63 1019.63 1019.48 1019.34 1019.32 1019.53 1019.76 1019.99 1020.33 1020.52 1020.80 1021.01 1021.05 1021.14 1021.43 1021.72 1021.49
1008.79 1008.83 1009.49 1010.67 1011.68 1012.42 1012.31 1012.74 1011.71 1011.76 1012.00 1012.32 1012.29 1012.40 1012.61 1012.88 1013.13 1013.29 1013.84 1014.33 1014.73 1015.14 1015.67 1016.05 1016.43 1016.90 1017.24 1017.54 1018.16 1018.82 1019.16 1019.60 1019.59 1019.41 1019.22 1019.18 1019.16 1019.35 1019.42 1019.56 1019.85 1020.16 1020.47 1020.69 1020.65 1020.63 1020.96 1021.31 1021.55
1008.79 1008.68 1009.81 1010.77 1011.74 1012.37 1012.85 1013.41 1012.30 1012.08 1012.91 1013.13 1013.12 1013.21 1013.12 1013.06 1013.14 1013.54 1013.99 1014.42 1014.59 1015.02 1015.48 1015.87 1016.31 1016.72 1016.97 1017.33 1017.75 1018.36 1018.96 1019.24 1019.27 1019.35 1019.28 1019.26 1019.18 1019.16 1019.23 1019.41 1019.62 1019.93 1020.16 1020.28 1020.43 1020.45 1020.60 1020.79 1021.11
1008.84 1009.50 1010.45 1011.42 1012.46 1013.18 1012.49 1013.04 1013.24 1012.90 1013.06 1013.69 1013.82 1013.87 1013.70 1013.53 1013.25 1013.74 1014.25 1014.55 1014.94 1015.26 1015.59 1016.01 1016.52 1017.12 1017.28 1017.57 1017.88 1018.22 1018.71 1019.02 1019.25 1019.38 1019.60 1019.63 1019.61 1019.57 1019.44 1019.60 1019.85 1019.99 1020.09 1020.24 1020.24 1020.20 1020.23 1020.32 1020.41
1009.25 1010.53 1012.26 1013.11 1013.43 1013.15 1012.17 1013.09 1012.66 1013.05 1013.27 1013.79 1014.22 1014.40 1014.46 1014.34 1014.33 1014.67 1015.15 1015.39 1015.71 1016.04 1016.19 1016.47 1016.80 1017.17 1017.44 1017.81 1018.11 1018.16 1018.29 1018.59 1019.01 1019.31 1019.58 1019.76 1019.82 1019.75 1019.64 1019.51 1019.53 1019.59 1019.60 1019.70 1019.78 1019.98 1019.91 1019.85 1019.92
1009.87 1010.48 1011.51 1012.33 1013.08 1012.89 1012.28 1012.98 1012.93 1013.19 1013.47 1013.99 1014.32 1014.69 1014.98 1015.19 1015.27 1015.60 1015.86 1016.10 1016.39 1016.54 1016.74 1016.88 1017.15 1017.40 1017.56 1017.80 1018.04 1018.13 1018.41 1018.67 1018.89 1019.06 1019.35 1019.56 1019.64 1019.59 1019.42 1019.41 1019.40 1019.34 1019.26 1019.28 1019.33 1019.39 1019.32 1019.25 1019.14
1009.79 1010.15 1010.55 1011.53 1012.03 1012.76 1012.86 1013.47 1013.64 1013.73 1014.22 1014.64 1015.09 1015.30 1015.51 1015.88 1016.07 1016.35 1016.51 1016.66 1016.98 1017.14 1017.26 1017.36 1017.61 1017.95 1018.10 1018.18 1018.31 1018.51 1018.68 1018.82 1019.01 1019.12 1019.32 1019.44 1019.44 1019.35 1019.18 1019.23 1019.26 1019.10 1019.05 1018.84 1018.82 1018.81 1018.71 1018.65 1018.56
1009.54 1010.02 1010.68 1011.55 1012.40 1013.04 1013.02 1013.37 1013.41 1014.06 1014.62 1015.08 1015.53 1015.77 1015.96 1016.18 1016.44 1016.77 1016.99 1017.19 1017.35 1017.37 1017.52 1017.61 1017.79 1018.02 1018.17 1018.29 1018.55 1018.75 1018.89 1019.08 1019.22 1019.30 1019.38 1019.46 1019.43 1019.35 1019.38 1019.33 1019.29 1019.17 1018.89 1018.75 1018.65 1018.38 1018.15 1018.00 1017.74
1009.85 1009.84 1010.48 1011.30 1012.28 1012.81 1013.46 1013.48 1012.46 1013.38 1014.09 1014.85 1015.42 1015.81 1016.08 1016.51 1016.81 1017.15 1017.30 1017.49 1017.57 1017.69 1017.89 1018.05 1018.11 1018.17 1018.32 1018.35 1018.53 1018.76 1018.97 1019.16 1019.22 1019.28 1019.22 1019.33 1019.37 1019.34 1019.18 1019.10 1019.02 1018.73 1018.44 1018.26 1018.09 1017.95 1017.66 1017.40 1017.12
1009.80 1009.92 1010.35 1011.72 1012.62 1012.73 1013.11 1013.30 1012.57 1012.93 1013.52 1014.31 1015.16 1015.66 1016.15 1016.48 1017.00 1017.41 1017.66 1018.00 1018.23 1018.30 1018.25 1018.24 1018.27 1018.32 1018.31 1018.39 1018.55 1018.78 1018.97 1019.10 1019.22 1019.35 1019.35 1019.22 1019.15 1019.05 1019.02 1018.83 1018.66 1018.44 1018.15 1017.82 1017.60 1017.24 1016.98 1016.86 1016.76
Wind_Speed
8 6 1 3 5 4 2 1 5 4 4 2 9 13 8 3 3 5 3 17 17 13 12 11 13 13 13 13 13 13 12 12 12 13 13 14 14 14 15 14 14 14 14 16 15 14 15 13 13
5 5 2 1 5 1 4 4 6 5 5 7 11 7 6 4 4 7 7 18 18 15 12 10 14 13 12 13 12 13 12 12 12 12 12 13 14 14 14 14 14 14 14 13 14 14 14 14 12
4 4 3 4 2 2 2 4 8 5 6 3 4 5 4 5 5 7 7 15 18 14 12 12 15 13 12 12 12 12 12 12 12 12 12 13 13 14 14 14 14 14 14 14 13 12 12 12 12
1 5 4 2 1 4 4 6 9 6 2 5 6 7 5 1 6 9 10 19 16 13 12 14 16 14 12 12 11 11 11 11 11 11 12 13 13 12 13 13 13 14 14 13 13 12 11 10 10
3 3 1 1 4 7 2 8 9 7 6 2 7 2 4 4 11 10 12 17 17 12 11 11 15 14 13 12 11 11 11 11 10 10 11 11 11 11 11 12 12 14 14 14 13 12 11 10 9
3 1 1 2 5 7 2 9 8 7 7 6 7 7 5 6 10 8 10 16 17 15 12 11 14 13 12 13 12 11 10 10 11 10 10 11 12 14 14 14 14 13 13 12 12 11 11 9 9
4 2 4 5 5 4 8 8 8 8 7 4 10 5 5 6 9 8 9 16 15 16 14 12 10 11 12 13 12 11 12 12 12 12 13 14 13 14 13 14 13 12 12 12 12 12 12 10 8
4 3 3 4 7 8 4 5 7 7 3 3 7 6 7 7 10 8 8 17 16 14 13 9 9 9 8 6 11 9 10 10 10 13 14 14 14 13 12 11 12 10 11 12 13 13 14 16 11
0 1 3 4 6 6 5 7 3 3 7 4 3 4 9 13 11 7 5 7 12 11 13 11 11 9 10 7 6 8 10 9 8 9 12 9 5 6 7 7 10 15 12 15 15 15 16 15 14
4 4 7 3 5 3 1 6 8 5 5 4 6 8 13 14 11 8 7 11 12 14 14 12 12 10 9 8 6 4 2 2 1 5 5 3 5 4 4 8 13 14 15 15 15 16 16 12 5
5 5 2 5 0 4 10 6 3 9 3 8 11 11 14 7 9 8 7 12 16 14 9 12 11 9 9 7 4 2 1 3 4 7 6 6 5 5 3 4 4 5 10 5 7 7 5 8 6
2 4 3 10 1 5 3 8 5 5 5 4 11 14 8 9 9 8 7 8 17 11 14 11 10 10 7 4 4 4 4 4 4 4 6 5 4 5 4 4 4 5 4 6 6 4 6 7 7
5 4 4 5 6 6 7 4 5 6 6 8 11 10 10 8 8 6 6 11 14 8 8 9 9 8 7 7 5 4 5 5 4 5 5 5 5 5 4 4 4 4 4 4 5 5 5 6 7
5 6 3 4 5 5 7 2 3 2 6 9 10 9 9 10 10 7 10 10 11 11 12 10 10 8 8 6 7 5 5 5 5 4 4 6 4 5 5 4 4 4 4 4 4 4 5 5 5
4 5 4 1 1 4 4 5 6 3 4 8 8 7 8 10 8 8 9 12 12 8 9 9 10 8 9 8 7 5 4 5 4 4 6 6 6 6 5 4 4 3 3 5 5 5 5 5 5
6 5 4 2 5 2 3 4 7 7 5 3 6 6 6 6 5 9 11 12 11 10 10 8 10 11 9 8 5 4 4 4 4 4 4 5 6 5 5 4 3 2 3 3 3 3 4 4 5
1 5 4 2 3 5 4 4 2 4 8 7 5 7 7 7 7 7 8 13 12 12 10 10 9 9 9 7 5 5 6 4 4 4 5 5 5 5 4 3 1 3 3 3 3 3 2 3 5
5 4 3 7 7 3 3 5 6 7 3 8 6 3 7 8 8 9 11 13 12 10 9 9 7 8 8 5 4 3 3 3 4 4 4 6 4 5 4 2 2 3 3 2 2 2 2 1 3
8 8 10 3 7 5 5 6 8 8 5 7 6 4 2 7 5 9 11 14 14 11 10 8 9 6 6 3 3 2 3 2 2 4 7 7 5 4 4 2 1 1 1 1 1 1 2 3 2
13 6 4 4 6 5 7 10 9 7 3 6 8 6 0 3 7 8 13 8 10 10 10 9 9 8 5 4 3 3 3 2 2 2 4 6 6 5 5 4 3 1 0 2 2 1 2 2 1
15 8 7 8 3 3 5 7 6 2 5 6 5 5 5 4 8 7 9 10 10 9 9 10 9 9 7 7 3 2 3 3 2 1 2 4 6 6 6 5 4 3 3 2 2 2 2 2 2
11 5 8 14 8 5 6 5 5 7 6 5 5 7 5 5 1 7 8 7 9 8 8 8 8 9 8 8 5 5 4 4 4 4 4 5 6 6 6 6 6 4 3 3 3 2 2 3 3
5 5 9 8 6 6 3 4 8 7 5 4 5 6 5 5 2 8 9 8 7 8 8 8 8 7 7 7 7 6 3 3 1 2 2 2 3 6 5 4 3 3 2 2 3 3 3 2 3
7 8 9 5 4 1 8 7 4 5 7 4 3 3 5 7 5 8 7 8 7 5 6 5 7 4 1 4 6 7 7 5 2 0 0 2 1 2 4 3 2 1 1 2 3 4 4 5 4
6 7 3 3 1 7 4 5 6 5 6 8 8 5 6 7 9 9 9 7 6 7 6 5 5 2 3 2 3 5 6 5 4 2 1 2 1 1 3 1 1 1 2 4 4 4 5 5 4
4 6 6 6 5 5 3 4 5 5 7 8 8 7 7 8 7 8 7 6 6 7 6 4 4 3 5 4 5 4 5 3 3 3 3 2 2 2 2 4 3 4 5 5 5 3 5 6 6
4 2 5 4 1 4 3 3 4 5 7 7 8 8 7 8 8 8 8 8 8 8 8 8 7 5 5 6 5 6 5 4 2 2 2 1 2 3 4 5 6 6 7 7 7 5 6 6 6
2 3 3 3 2 3 2 4 5 8 7 7 7 8 6 6 8 8 7 7 6 6 5 6 6 5 3 5 5 4 5 4 3 3 2 3 4 4 6 6 6 7 7 7 7 5 6 7 6
1 1 1 3 5 5 2 5 6 10 11 11 9 8 8 8 7 7 6 5 6 4 4 4 4 3 3 3 3 4 5 5 5 4 5 4 3 4 4 5 6 6 7 7 6 7 7 7 7
1 3 5 6 4 1 5 6 5 11 11 12 9 8 8 8 8 7 5 4 5 4 2 1 1 2 3 3 3 4 3 3 4 4 4 4 5 5 6 6 6 7 7 7 7 7 7 7 10
Wind_Direction
310 292 176 35 39 67 245 116 145 97 69 91 51 91 118 88 42 154 130 123 134 132 131 127 117 112 104 96 94 91 88 84 81 77 75 73 70 68 68 64 63 61 56 53 58 57 60 54 48
302 306 69 69 78 37 273 104 107 111 147 101 107 114 69 57 82 129 106 142 137 135 129 130 122 119 112 101 99 97 93 90 85 82 79 78 77 75 73 70 67 65 64 58 52 53 57 55 45
292 209 81 113 109 191 245 146 136 120 142 133 95 98 93 113 108 144 155 121 129 125 131 128 122 116 109 106 103 101 96 91 89 84 82 81 80 76 74 72 69 66 64 59 55 52 44 49 40
293 5 359 111 182 239 162 167 127 113 341 38 98 69 62 325 127 149 140 118 120 125 126 123 123 120 115 112 108 101 97 93 90 86 83 82 80 77 74 73 74 71 68 63 60 55 49 44 34
26 67 317 151 313 323 99 143 137 145 154 203 113 97 73 29 122 134 130 128 124 129 127 122 126 123 120 112 108 106 103 99 96 93 90 88 85 77 76 70 77 73 62 57 52 48 47 42 32
354 114 322 78 242 316 355 162 155 153 144 132 92 110 161 158 127 162 138 134 135 135 134 128 128 128 127 113 113 111 111 100 90 94 98 82 80 77 70 65 59 59 58 53 47 41 38 30 19
134 95 238 133 220 181 215 187 146 167 148 166 153 93 157 151 161 157 141 140 143 140 140 139 135 128 116 114 108 101 105 108 103 99 93 86 78 74 67 66 63 59 53 50 44 40 31 15 360
137 129 270 155 194 239 225 134 147 126 184 126 127 159 188 194 165 159 137 138 145 143 135 138 129 119 103 111 113 113 106 107 111 108 104 100 91 82 77 66 61 53 48 42 31 26 34 29 25
31 51 254 234 183 234 196 119 42 116 113 60 85 138 168 157 150 155 140 119 141 139 143 149 140 130 125 111 120 123 129 127 128 122 132 112 112 92 82 71 43 50 51 43 40 34 27 21 16
135 166 230 164 194 16 56 117 133 111 110 76 64 63 129 147 155 165 169 155 145 146 153 148 135 142 133 129 142 159 154 122 93 103 118 90 91 121 86 46 53 43 41 38 32 30 27 20 9
202 201 346 307 212 267 181 161 130 118 190 177 159 147 147 154 167 174 184 144 163 153 146 146 144 146 134 135 144 138 158 94 58 70 86 79 79 78 70 57 35 32 36 27 30 23 20 18 16
202 257 348 300 291 38 202 139 132 138 150 166 164 155 152 157 176 185 176 163 150 157 145 151 141 139 132 119 136 139 117 88 79 74 82 81 73 68 69 63 47 45 28 33 32 24 15 15 9
171 234 278 346 44 336 272 122 159 156 139 99 137 140 151 161 178 201 184 125 123 116 134 139 131 126 118 112 119 103 100 97 96 71 72 89 85 79 75 62 54 44 39 39 29 25 17 11 1
181 213 225 20 28 31 15 107 89 43 137 104 123 154 165 174 186 203 131 132 123 120 115 121 125 118 112 104 100 104 104 111 91 85 87 83 93 92 84 68 55 44 42 29 36 25 19 2 1
120 99 116 82 108 349 330 18 322 91 112 120 137 174 178 190 185 179 139 137 129 124 125 121 122 113 103 110 114 118 128 112 113 109 90 88 87 88 99 85 62 44 36 32 29 16 16 6 353
115 87 111 262 136 333 80 188 6 31 69 123 175 188 186 202 163 135 132 136 134 124 120 118 111 114 118 122 127 125 139 136 134 120 103 92 85 95 92 88 70 54 45 49 32 21 358 358 351
224 165 147 152 162 134 121 224 259 327 11 324 250 177 187 188 145 144 128 136 129 124 119 106 119 129 133 136 140 147 146 139 151 131 127 125 105 100 106 103 110 74 54 41 18 357 23 347 337
163 158 192 170 206 122 169 238 271 276 231 247 244 270 208 183 184 159 125 130 120 124 120 121 119 138 137 126 120 101 121 148 143 157 160 154 154 139 121 100 75 67 55 11 2 351 329 291 308
183 187 190 140 170 118 222 256 240 237 238 224 169 295 315 235 217 140 128 133 131 132 130 138 125 158 130 110 123 114 177 182 169 170 162 159 173 165 142 146 114 96 82 261 308 310 325 314 315
228 192 131 11 132 136 195 231 228 233 211 168 145 122 3 12 149 145 136 129 139 148 146 142 150 162 159 137 179 164 170 216 191 183 180 169 170 165 172 160 188 160 113 339 326 310 304 280 325
226 188 188 169 178 350 110 298 260 245 129 135 101 99 38 2 154 167 146 147 134 142 156 158 168 169 171 169 122 75 62 41 61 218 214 211 188 187 184 187 187 198 171 227 248 260 224 253 300
218 221 146 136 124 198 153 254 297 168 138 99 85 56 19 16 128 177 143 141 145 153 152 166 168 166 181 173 149 167 170 182 219 206 217 218 207 204 207 200 194 199 196 222 240 219 218 162 273
216 87 137 143 153 108 203 99 268 125 122 127 71 52 4 348 48 165 151 149 156 146 164 155 172 184 179 174 171 162 165 197 264 323 291 225 215 216 222 214 202 215 204 228 236 278 275 211 198
152 76 41 55 97 32 220 148 270 214 165 136 85 68 26 357 48 122 137 138 147 139 144 134 124 114 175 165 179 176 188 211 225 311 92 270 298 6 31 58 89 129 266 269 268 269 255 257 243
77 83 43 26 36 220 277 145 227 164 151 152 141 119 65 48 67 85 93 97 101 106 100 103 87 72 92 155 215 210 205 196 185 183 131 81 6 335 307 315 319 282 272 277 277 271 265 262 246
153 147 151 175 184 226 355 171 237 165 121 130 120 115 83 70 79 85 95 92 82 70 52 52 48 350 356 29 50 90 137 151 158 147 147 173 209 252 278 311 303 284 274 270 265 248 249 249 245
239 177 195 115 285 90 181 64 10 127 121 110 124 111 107 97 82 82 77 81 81 75 72 76 75 81 64 65 69 71 66 65 38 34 39 337 311 280 274 279 281 282 281 272 265 252 255 251 250
167 196 78 356 198 217 197 166 211 181 169 156 134 135 126 108 97 88 84 88 86 86 78 69 77 76 68 70 57 49 30 39 67 69 6 318 307 322 326 315 301 293 285 280 272 264 258 251 251
355 31 75 126 147 168 160 262 206 177 171 161 162 159 151 140 133 127 128 136 139 124 112 115 116 124 123 122 107 54 12 2 2 2 360 360 337 319 310 299 293 289 284 276 273 271 270 260 262
216 204 145 120 269 210 136 256 291 179 168 155 165 150 141 139 141 151 145 111 95 96 84 198 246 211 200 171 96 61 43 21 4 358 341 337 327 323 306 299 294 288 281 278 271 267 284 279 280